Simultaneous Nadir Overpasses (SNOs) Predictions

Prediction of SNOs between AQUA and NPP Satellite Orbit:

Table of predicted SNOs for the next 14.0 days since TLE Epoch: 8/7/2021
Index Date (AQUA) Time (AQUA) Lat,Lon (AQUA) SZA (AQUA ) Date (NPP) Time (NPP) Lat,Lon (NPP) SZA (NPP ) Distance(km) Time Diff (sec)
1 08/07/2021 13:17:29 70.21,-152.01 87.95 08/07/2021 13:16:16 70.27,-152.58 88.10 22.49 73
2 08/07/2021 14:05:08 -75.90, 27.42 98.29 08/07/2021 14:05:09 -75.91, 27.48 98.30 1.77 1
3 08/07/2021 14:50:54 81.65, -96.72 69.13 08/07/2021 14:52:07 81.04, -97.60 68.89 69.37 73
4 08/10/2021 05:32:30 74.88, -27.19 83.62 08/10/2021 05:31:42 74.87, -27.22 83.67 1.22 48
5 08/10/2021 06:21:35 -76.00, 143.60 97.66 08/10/2021 06:22:04 -75.99, 143.54 97.67 1.75 29
6 08/12/2021 21:48:45 75.57, 90.57 83.59 08/12/2021 21:48:24 75.57, 90.63 83.59 1.68 21
7 08/12/2021 22:37:53 -76.52, -98.82 97.53 08/12/2021 22:38:49 -76.53, -98.78 97.58 1.25 56
8 08/15/2021 13:16:11 -74.43, 35.82 94.35 08/15/2021 13:15:01 -74.42, 35.77 94.28 1.55 70
9 08/15/2021 14:05:10 75.75,-153.02 84.16 08/15/2021 14:05:17 75.75,-153.04 84.16 0.66 7
10 08/18/2021 05:32:23 -75.22, 153.72 94.44 08/18/2021 05:31:40 -75.23, 153.79 94.42 1.96 43
11 08/18/2021 06:21:32 76.02, -36.31 84.65 08/18/2021 06:22:07 76.02, -36.39 84.64 2.42 35
12 08/20/2021 21:48:46 -75.50, -89.63 93.93 08/20/2021 21:48:31 -75.50, -89.62 93.92 0.35 15



Historial Predications of SNOs between AQUA and NPP
